User: anonymous   Login
Location: Caltech
(34.1382°N, 118.1253°W)
Time: 00:47:22
(UTC-07:00)
Language:

OAO 2 Rocket - Orbit

View from above orbital plane
View from above orbital plane
View from above satellite
View from above satellite

Ground track
Ground track

The orbit data is extracted from the following two-line orbital elements,

1 03598U 68110B   16178.50268109  .00000050  00000-0  15909-4 0  9998
2 03598  34.9923 185.5911 0049756 223.1599 136.5187 14.54228149514662
Epoch (UTC): 26 June 2016 12:03:51
Eccentricity: 0.0049756
inclination: 34.9923°
perigee height: 676 km
apogee height: 747 km
right ascension of ascending node: 185.5911°
argument of perigee: 223.1599°
revolutions per day: 14.54228149
mean anomaly at epoch: 136.5187°
orbit number at epoch: 51466

The dashed part of the orbit path shows where the satellite is in the earth's shadow,  

DLR